[[{"header":{"parameterUnit":"m.s-1","parameterCategory":1,"la1":30.2991,"la2":30.254,"lo1":-89.0895,"lo2":-89.0444,"dy":0.0017,"dx":0.0017,"nx":28,"ny":28,"refTime":"2023-10-22T03:00:00:Z","depth":0,"parameterNumber":2,"parameterNumberName":"U-component_of_WINDS"},"data":[0,0,0,0,0,0,0,0,0,0,0,0,0,0,0,0,0,0,0,0,0,0,0,0,0,0,0,0,0,0,0,0,0,0,0,0,0,0,0,0,0,0,0,0,0,0,0,0,0,0,0,0,0,0,0,0,0,0,-1.5793,-1.5793,0,-1.5796,-1.5796,-1.5796,-1.5729,-1.5727,-1.5726,-1.5724,-1.5728,-1.573,-1.5732,0,0,0,0,0,0,0,0,0,0,0,0,0,-1.5731,-1.5733,-1.5793,-1.5793,-1.5793,-1.5796,-1.5796,-1.5796,-1.5729,-1.5727,-1.5725,-1.5723,-1.5728,-1.573,-1.5732,0,0,0,0,0,0,0,0,0,0,0,0,0,-1.5749,-1.5733,-1.5793,-1.576,-1.5757,-1.5796,-1.5796,-1.5796,-1.573,-1.5727,-1.5725,-1.5722,-1.5727,-1.573,-1.5732,-1.5803,0,0,-1.574,-1.5742,0,0,0,0,0,0,0,0,-1.5748,-1.5751,-1.5765,-1.5763,-1.5759,-1.5759,-1.5776,-1.5799,-1.5731,-1.574,-1.5724,-1.5721,-1.5741,-1.5742,-1.5749,-1.5803,-1.5803,-1.5741,-1.5742,-1.5743,-1.5744,0,0,0,0,0,0,0,-1.5747,-1.5751,-1.5794,-1.5765,-1.5762,-1.5746,-1.5745,-1.578,-1.5756,-1.5739,-1.5734,-1.5736,-1.5739,-1.5746,-1.5748,-1.5803,-1.5741,-1.5743,-1.5745,-1.5746,-1.5916,-1.5919,0,0,0,0,0,0,-1.575,-1.575,-1.5794,-1.5794,-1.5747,-1.5749,-1.5749,-1.5762,-1.5755,-1.5752,-1.5738,-1.5733,-1.5743,-1.5745,-1.5748,-1.5831,-1.5743,-1.5746,-1.5747,-1.5913,-1.5917,-1.592,0,0,0,0,0,0,-1.5749,-1.5754,-1.5794,-1.5771,-1.5775,-1.5753,-1.5769,-1.5764,-1.5771,-1.5754,-1.575,-1.575,-1.5741,-1.5744,-1.579,-1.583,-1.5747,-1.575,-1.591,-1.5914,-1.5918,-1.5996,0,0,0,0,0,0,-1.5747,-1.5754,-1.5781,-1.5772,-1.5776,-1.5835,-1.5771,-1.5766,-1.5776,-1.5769,-1.5764,-1.5761,-1.5739,-1.5786,-1.5793,-1.5832,-1.5752,-1.5906,-1.5912,-1.5917,-1.599,-1.6003,-1.6013,0,0,0,0,0,-1.5745,-1.5803,-1.5782,-1.5788,-1.5809,-1.5838,-1.584,-1.5814,-1.5779,-1.5806,-1.5795,-1.5761,-1.5825,-1.5791,-1.5798,-1.5839,-1.5904,-1.591,-1.5917,-1.5984,-1.6,-1.6013,0,0,0,0,0,0,-1.5817,-1.5801,-1.5778,-1.5834,-1.5838,-1.5826,-1.5859,-1.5831,-1.5845,-1.5837,-1.5804,-1.5804,-1.5855,-1.5851,-1.5815,-1.5907,-1.5858,-1.5866,-1.5907,-1.5922,-1.5934,-1.5933,-1.5754,0,0,0,0,0,-1.5839,-1.5864,-1.5849,-1.59,-1.5903,-1.5881,-1.5893,-1.5872,-1.5874,-1.5876,-1.5868,-1.5872,-1.5893,-1.5907,-1.5925,-1.5989,-1.5987,-1.6021,-1.6033,-1.6042,-1.605,-1.6083,-1.6098,-1.5942,-1.5942,-1.5941,0,0,-1.5886,-1.588,-1.5898,-1.5914,-1.5914,-1.5941,-1.5882,-1.5913,-1.5933,-1.588,-1.5922,-1.5917,-1.592,-1.5975,-1.5998,-1.5973,-1.6093,-1.6051,-1.6059,-1.6061,-1.6091,-1.6106,-1.6119,-1.5946,-1.5945,-1.5945,0,0,-1.5984,-1.5982,-1.6024,-1.6026,-1.6027,-1.6012,-1.6022,-1.6015,-1.601,-1.6051,-1.6012,-1.6036,-1.6072,-1.6076,-1.6082,-1.6182,-1.6152,-1.6189,-1.6251,-1.6284,-1.6296,-1.6307,-1.6343,-1.6356,-1.6197,-1.6197,-1.6197,0,-1.6041,-1.6079,-1.605,-1.6083,-1.6091,-1.6045,-1.6088,-1.6091,-1.6098,-1.6106,-1.6077,-1.6122,-1.6121,-1.6176,-1.62,-1.6207,-1.6218,-1.6189,-1.6297,-1.6307,-1.6317,-1.635,-1.6364,-1.6201,-1.6201,-1.62,-1.62,0,-1.615,-1.6177,-1.6211,-1.6219,-1.6232,-1.627,-1.6246,-1.6263,-1.6241,-1.6229,-1.6273,-1.6269,-1.6286,-1.6298,-1.6277,-1.635,-1.6335,-1.6302,-1.6252,-1.6337,-1.6368,-1.638,-1.6208,-1.6206,-1.6205,-1.6204,0,0,-1.6293,-1.6284,-1.6297,-1.63,-1.6298,-1.6319,-1.6355,-1.6371,-1.6386,-1.6393,-1.6422,-1.6455,-1.6425,-1.6432,-1.6412,-1.6441,-1.652,-1.6405,-1.6404,-1.6426,-1.6601,-1.6625,-1.664,-1.65,-1.6503,-1.6505,-1.6601,0,-1.6388,-1.6448,-1.6423,-1.6486,-1.6511,-1.6468,-1.6499,-1.6502,-1.6492,-1.6512,-1.6502,-1.6525,-1.6484,-1.6488,-1.6515,-1.6505,-1.6555,-1.6498,-1.6528,-1.6529,-1.6528,-1.6657,-1.6682,-1.6773,-1.6612,-1.6615,-1.6616,0,-1.6506,-1.6518,-1.6584,-1.6577,-1.6587,-1.6616,-1.6628,-1.6648,-1.6651,-1.6641,-1.665,-1.6623,-1.6659,-1.661,-1.6658,-1.662,-1.6631,-1.6628,-1.6631,-1.6632,-1.6578,-1.6661,-1.6801,-1.6815,-1.6635,-1.6633,-1.6632,0,-1.6604,-1.6636,-1.6679,-1.6683,-1.6677,-1.6698,-1.6697,-1.6696,-1.6708,-1.6719,-1.6726,-1.6742,-1.6751,-1.6764,-1.6742,-1.6709,-1.6795,-1.6743,-1.6788,-1.6789,-1.6808,-1.6807,-1.6951,-1.6816,-1.6816,-1.6815,-1.6815,0,-1.6712,-1.6754,-1.6722,-1.6749,-1.6795,-1.6766,-1.6812,-1.6806,-1.6806,-1.6831,-1.6795,-1.682,-1.679,-1.6812,-1.6795,-1.6838,-1.6842,-1.6836,-1.6831,-1.6839,-1.684,-1.6846,-1.6839,-1.6819,-1.6818,-1.6817,-1.6817,0,-1.6828,-1.6809,-1.6853,-1.6844,-1.6843,-1.6877,-1.6869,-1.6894,-1.6882,-1.6914,-1.692,-1.6901,-1.6925,-1.6905,-1.6928,-1.6917,-1.6974,-1.696,-1.6973,-1.6969,-1.7015,-1.7011,-1.7168,-1.7187,-1.704,-1.7041,-1.7042,0,-1.6899,-1.693,-1.6924,-1.6938,-1.6939,-1.6962,-1.6973,-1.6946,-1.6959,-1.6965,-1.6989,-1.701,-1.7024,-1.7065,-1.7054,-1.7071,-1.7058,-1.7111,-1.706,-1.7067,-1.7058,-1.7056,-1.7059,-1.7122,-1.7123,-1.7125,-1.7126,0,-1.7026,-1.7014,-1.7032,-1.7046,-1.7061,-1.7071,-1.7079,-1.7092,-1.7064,-1.7082,-1.7105,-1.7117,-1.7141,-1.7162,-1.7176,-1.7175,-1.7146,-1.7142,-1.7154,-1.7162,-1.7168,-1.7165,-1.7001,-1.7139,-1.7137,-1.7136,-1.7136,-1.7135,-1.7121,-1.7146,-1.7146,-1.7167,-1.717,-1.7178,-1.72,-1.7191,-1.721,-1.7227,-1.721,-1.7239,-1.7241,-1.7257,-1.7259,-1.7282,-1.7259,-1.7276,-1.728,-1.7284,-1.7291,-1.7165,-1.7284,-1.7284,-1.7284,-1.7283,-1.7283,0,-1.7245,-1.7243,-1.7263,-1.7274,-1.7291,-1.7262,-1.7269,-1.7285,-1.731,-1.7315,-1.733,-1.7358,-1.7378,-1.7369,-1.7387,-1.7407,-1.7394,-1.7412,-1.741,-1.7411,-1.731,-1.7298,-1.7422,-1.7422,-1.7422,-1.7422,-1.7422,-1.7422,-1.7312,-1.7354,-1.7343,-1.7386,-1.7384,-1.7412,-1.7418,-1.7425,-1.7428,-1.7461,-1.7477,-1.7471,-1.747,-1.7487,-1.7505,-1.7502,-1.751,-1.7533,-1.7525,-1.7431,-1.7418,-1.7405,-1.7393,-1.7535,-1.7535,-1.7624,-1.7625,-1.7625]},{"header":{"parameterUnit":"m.s-1","parameterCategory":1,"la1":30.2991,"la2":30.254,"lo1":-89.0895,"lo2":-89.0444,"dy":0.0017,"dx":0.0017,"nx":28,"ny":28,"refTime":"2023-10-22T03:00:00:Z","depth":0,"parameterNumber":3,"parameterNumberName":"V-component_of_WINDS"},"data":[0,0,0,0,0,0,0,0,0,0,0,0,0,0,0,0,0,0,0,0,0,0,0,0,0,0,0,0,0,0,0,0,0,0,0,0,0,0,0,0,0,0,0,0,0,0,0,0,0,0,0,0,0,0,0,0,0,0,-0.2192,-0.2192,0,-0.2196,-0.2196,-0.2196,-0.2191,-0.2191,-0.219,-0.219,-0.2195,-0.2195,-0.2195,0,0,0,0,0,0,0,0,0,0,0,0,0,-0.2178,-0.2178,-0.2192,-0.2192,-0.2192,-0.2196,-0.2196,-0.2196,-0.2191,-0.2191,-0.219,-0.219,-0.2195,-0.2195,-0.2195,0,0,0,0,0,0,0,0,0,0,0,0,0,-0.2183,-0.2178,-0.2192,-0.219,-0.2189,-0.2196,-0.2196,-0.2196,-0.2191,-0.2191,-0.219,-0.219,-0.2194,-0.2195,-0.2195,-0.2204,0,0,-0.2197,-0.2197,0,0,0,0,0,0,0,0,-0.2183,-0.2184,-0.219,-0.219,-0.219,-0.2193,-0.2193,-0.2199,-0.2191,-0.219,-0.219,-0.219,-0.2194,-0.2195,-0.2196,-0.2204,-0.2204,-0.2197,-0.2197,-0.2197,-0.2197,0,0,0,0,0,0,0,-0.2183,-0.2183,-0.2193,-0.219,-0.219,-0.2188,-0.2189,-0.2194,-0.2194,-0.219,-0.219,-0.2191,-0.2194,-0.2196,-0.2196,-0.2204,-0.2197,-0.2197,-0.2197,-0.2198,-0.2219,-0.2219,0,0,0,0,0,0,-0.2182,-0.2183,-0.2193,-0.2193,-0.2185,-0.2189,-0.2189,-0.2192,-0.2194,-0.2194,-0.2191,-0.219,-0.2195,-0.2196,-0.2196,-0.2206,-0.2197,-0.2198,-0.2198,-0.2219,-0.2219,-0.2219,0,0,0,0,0,0,-0.2182,-0.2183,-0.2193,-0.2188,-0.2189,-0.2189,-0.2192,-0.2192,-0.2194,-0.2194,-0.2194,-0.2193,-0.2195,-0.2196,-0.2202,-0.2206,-0.2198,-0.2198,-0.2218,-0.2219,-0.2219,-0.2226,0,0,0,0,0,0,-0.2182,-0.2183,-0.2187,-0.2188,-0.219,-0.2199,-0.2193,-0.2192,-0.2195,-0.2194,-0.2196,-0.2196,-0.2195,-0.2201,-0.2202,-0.2207,-0.2199,-0.2218,-0.2219,-0.2219,-0.2226,-0.2227,-0.2228,0,0,0,0,0,-0.2181,-0.2189,-0.2187,-0.2188,-0.2194,-0.2199,-0.22,-0.2199,-0.2195,-0.2198,-0.2198,-0.2196,-0.2206,-0.2202,-0.2203,-0.2208,-0.2218,-0.2218,-0.2219,-0.2225,-0.2227,-0.2228,0,0,0,0,0,0,-0.2188,-0.2189,-0.2187,-0.2195,-0.2197,-0.2198,-0.2202,-0.22,-0.2203,-0.2202,-0.2201,-0.2201,-0.2208,-0.2208,-0.2204,-0.2216,-0.2211,-0.2212,-0.2215,-0.2217,-0.2218,-0.2218,-0.2199,0,0,0,0,0,-0.219,-0.2194,-0.2195,-0.2202,-0.2203,-0.2203,-0.2205,-0.2204,-0.2205,-0.2206,-0.2207,-0.2209,-0.2212,-0.2214,-0.2218,-0.2226,-0.2226,-0.2229,-0.2231,-0.2232,-0.2232,-0.2236,-0.2238,-0.2222,-0.2222,-0.2222,0,0,-0.2195,-0.2196,-0.2199,-0.2203,-0.2205,-0.2209,-0.2203,-0.2208,-0.2211,-0.2207,-0.2213,-0.2213,-0.2215,-0.2222,-0.2225,-0.2223,-0.2237,-0.2232,-0.2233,-0.2234,-0.2237,-0.2239,-0.224,-0.2222,-0.2222,-0.2222,0,0,-0.2206,-0.2208,-0.2214,-0.2215,-0.2217,-0.2216,-0.2218,-0.2219,-0.2219,-0.2225,-0.2222,-0.2225,-0.2231,-0.2233,-0.2234,-0.2245,-0.2243,-0.2246,-0.2252,-0.2256,-0.2258,-0.2259,-0.2262,-0.2264,-0.2247,-0.2247,-0.2247,0,-0.2212,-0.2219,-0.2217,-0.2222,-0.2224,-0.222,-0.2225,-0.2227,-0.223,-0.2231,-0.2228,-0.2235,-0.2236,-0.2244,-0.2246,-0.2248,-0.2249,-0.2246,-0.2257,-0.2259,-0.226,-0.2263,-0.2265,-0.2247,-0.2247,-0.2247,-0.2247,0,-0.2226,-0.223,-0.2234,-0.2237,-0.224,-0.2245,-0.2244,-0.2246,-0.2244,-0.2244,-0.225,-0.2251,-0.2254,-0.2256,-0.2254,-0.2262,-0.2261,-0.2258,-0.2253,-0.2262,-0.2265,-0.2266,-0.2248,-0.2248,-0.2248,-0.2248,0,0,-0.2242,-0.2243,-0.2245,-0.2246,-0.2247,-0.225,-0.2255,-0.2258,-0.226,-0.2262,-0.2266,-0.2271,-0.2268,-0.227,-0.2268,-0.2272,-0.228,-0.2268,-0.2268,-0.227,-0.2289,-0.2291,-0.2293,-0.2278,-0.2278,-0.2279,-0.2289,0,-0.2253,-0.2261,-0.2259,-0.2268,-0.2271,-0.2268,-0.2272,-0.2273,-0.2273,-0.2276,-0.2275,-0.2279,-0.2275,-0.2275,-0.2279,-0.2278,-0.2284,-0.2278,-0.2282,-0.2282,-0.2281,-0.2295,-0.2297,-0.2307,-0.229,-0.229,-0.229,0,-0.2267,-0.2269,-0.2278,-0.2278,-0.228,-0.2284,-0.2286,-0.2289,-0.229,-0.229,-0.2291,-0.2289,-0.2293,-0.2288,-0.2294,-0.229,-0.2292,-0.2292,-0.2292,-0.2292,-0.2287,-0.2295,-0.231,-0.2311,-0.2292,-0.2292,-0.2292,0,-0.2277,-0.2283,-0.2288,-0.2289,-0.229,-0.2293,-0.2293,-0.2294,-0.2296,-0.2298,-0.2299,-0.2302,-0.2303,-0.2305,-0.2303,-0.23,-0.2309,-0.2304,-0.2309,-0.2309,-0.2311,-0.2311,-0.2326,-0.2312,-0.2312,-0.2312,-0.2312,0,-0.229,-0.2295,-0.2293,-0.2297,-0.2302,-0.23,-0.2306,-0.2306,-0.2306,-0.231,-0.2306,-0.2309,-0.2307,-0.231,-0.2309,-0.2314,-0.2314,-0.2314,-0.2313,-0.2314,-0.2314,-0.2315,-0.2315,-0.2313,-0.2312,-0.2312,-0.2312,0,-0.2303,-0.2302,-0.2308,-0.2308,-0.2308,-0.2312,-0.2312,-0.2315,-0.2314,-0.2318,-0.2319,-0.2318,-0.2321,-0.232,-0.2323,-0.2322,-0.2328,-0.2327,-0.2328,-0.2328,-0.2332,-0.2332,-0.2349,-0.2351,-0.2335,-0.2336,-0.2336,0,-0.2311,-0.2315,-0.2316,-0.2317,-0.2318,-0.2321,-0.2323,-0.2321,-0.2322,-0.2324,-0.2327,-0.2329,-0.2332,-0.2337,-0.2336,-0.2338,-0.2337,-0.2343,-0.2337,-0.2338,-0.2337,-0.2337,-0.2337,-0.2344,-0.2344,-0.2344,-0.2344,0,-0.2326,-0.2325,-0.2327,-0.233,-0.2332,-0.2333,-0.2335,-0.2336,-0.2334,-0.2336,-0.2339,-0.2341,-0.2344,-0.2347,-0.2349,-0.2349,-0.2346,-0.2346,-0.2347,-0.2348,-0.2348,-0.2348,-0.2331,-0.2345,-0.2345,-0.2345,-0.2345,-0.2345,-0.2336,-0.234,-0.234,-0.2343,-0.2344,-0.2345,-0.2348,-0.2347,-0.235,-0.2352,-0.2351,-0.2354,-0.2355,-0.2357,-0.2357,-0.236,-0.2358,-0.236,-0.236,-0.2361,-0.2361,-0.2348,-0.236,-0.236,-0.236,-0.236,-0.236,0,-0.2351,-0.2351,-0.2353,-0.2355,-0.2357,-0.2354,-0.2356,-0.2358,-0.2361,-0.2361,-0.2364,-0.2367,-0.2369,-0.2369,-0.2371,-0.2373,-0.2372,-0.2374,-0.2374,-0.2374,-0.2363,-0.2362,-0.2375,-0.2375,-0.2375,-0.2375,-0.2375,-0.2375,-0.2358,-0.2364,-0.2363,-0.2368,-0.2368,-0.2371,-0.2372,-0.2373,-0.2374,-0.2377,-0.2379,-0.2379,-0.2379,-0.2381,-0.2383,-0.2383,-0.2384,-0.2386,-0.2385,-0.2376,-0.2374,-0.2373,-0.2372,-0.2386,-0.2386,-0.2396,-0.2396,-0.2396]}]]